Location: Maiden
(35.5760°N, 81.2120°W)
Time: 18:29:00
(UTC-04:00)

SL-08 R/B - Pass Details

Date: 14 June 2018
Orbit: 946 x 993 km, 83.0° (Epoch: 18 September)

Event Time Altitude Azimuth Distance (km) Brightness Sun altitude
Rises 23:32:52 0° 355° (N) 3,627 8.5 -25.4°
Reaches altitude 10° 23:35:23 10° 357° (N) 2,682 7.6 -25.6°
Maximum altitude 23:41:30 75° 83° (E) 993 4.4 -26.2°
Enters shadow 23:42:17 66° 136° (SE) 1,042 4.3 -26.3°
